Wind_Speed
29 30 31 31 31 32 33 33 33 33 32 32 32 32 32 31 29 27 25 22 21 22 22 22 22 23 22 21 20 19 18 18 18 12 15 29 32 24 18 16 11 7 13 16 13 12 12 12 14 16 13 9 8 6 10 10 5 3 2 3 3 4 4 3 1 4 2 3 2 2 5 7 8 9 8 11 13 15 13 11 13 13 15 18 25 32 33 35
31 32 32 33 33 34 34 35 35 34 34 34 34 33 33 32 30 27 26 24 23 23 23 23 23 23 22 20 18 16 15 17 17 17 29 37 32 26 24 20 18 12 11 18 19 16 12 11 13 14 9 6 6 8 9 8 7 5 3 4 4 6 5 3 0 4 2 2 6 6 2 5 12 14 9 12 13 13 12 11 13 15 17 21 29 34 32 33
33 34 34 34 34 35 36 36 36 36 36 35 34 34 33 33 30 28 27 25 24 25 25 24 23 22 20 18 15 11 11 14 11 17 27 27 27 33 31 21 18 17 16 20 21 20 15 13 16 13 8 7 6 9 9 7 7 6 4 4 6 8 5 4 3 4 3 4 7 5 3 9 13 14 7 12 14 11 12 12 13 15 20 23 25 30 32 32
34 35 35 35 36 36 37 37 37 37 37 36 35 35 33 33 31 29 28 26 26 26 26 24 23 20 17 16 10 6 7 10 6 11 14 12 14 24 33 30 21 19 19 19 20 20 19 16 16 13 9 7 7 9 10 8 6 5 6 6 7 8 5 3 3 3 3 4 5 5 5 8 7 11 8 13 12 7 10 13 16 19 23 23 22 26 30 29
34 35 36 36 37 38 38 38 38 38 38 38 36 35 34 33 31 30 28 26 26 26 26 24 20 17 14 11 3 3 4 3 1 1 6 8 4 11 28 33 25 22 20 19 19 19 20 16 12 12 8 6 8 8 9 11 8 6 8 11 8 6 5 3 4 3 5 6 6 6 7 2 6 6 8 15 9 5 10 13 17 21 23 23 21 22 25 25
34 35 36 37 38 39 39 39 39 39 39 39 37 35 34 33 32 30 27 26 26 26 26 21 17 14 10 5 3 0 2 1 4 4 8 11 8 4 20 29 27 24 22 19 18 17 16 14 11 10 8 7 10 9 9 12 11 7 7 12 11 8 6 4 6 6 6 7 6 6 6 1 8 3 2 14 11 6 11 15 18 21 22 23 22 20 21 23
35 36 37 37 39 39 39 40 40 40 40 39 37 36 34 33 32 29 27 27 26 25 24 18 15 11 6 3 4 2 2 8 15 7 2 8 9 2 14 26 29 25 23 19 15 13 12 13 12 9 8 8 9 11 11 12 13 10 7 11 11 11 8 7 8 7 8 10 10 8 8 3 11 4 5 11 13 10 13 18 20 20 22 23 21 19 19 20
36 37 37 38 39 39 40 40 40 40 40 39 37 35 34 34 32 29 27 27 26 24 21 15 12 8 1 3 2 3 4 16 20 11 12 10 4 1 14 26 29 26 22 20 16 13 11 13 13 9 8 9 8 11 12 11 12 12 10 10 8 11 11 9 9 9 10 10 9 9 7 6 11 11 6 8 13 14 16 19 20 20 21 22 20 21 18 16
38 38 38 39 40 40 40 40 40 40 40 39 37 35 35 34 31 29 27 27 26 23 18 14 11 6 2 2 3 3 8 19 17 9 13 14 7 6 17 24 29 26 20 21 19 15 11 11 13 11 8 9 10 11 11 10 8 10 12 11 9 11 12 11 10 11 10 6 7 9 6 8 6 10 6 8 13 16 19 20 21 20 20 20 19 19 17 16
39 39 39 40 41 41 41 41 41 40 40 38 37 36 35 33 31 30 29 28 26 20 16 12 9 2 3 4 3 4 11 13 13 14 18 14 13 15 19 23 29 27 18 18 19 16 13 11 12 11 9 9 10 10 11 10 7 10 13 12 12 11 10 12 12 11 7 5 8 9 7 8 7 8 5 10 15 17 20 21 20 19 19 19 18 17 15 16
39 40 40 41 41 42 42 42 41 40 40 37 37 36 35 33 31 31 30 28 23 16 14 11 7 2 6 5 3 6 10 7 9 11 22 18 18 21 22 23 28 28 20 15 17 20 18 17 12 8 7 6 8 10 11 11 10 12 12 12 14 13 9 12 13 10 6 5 9 9 7 6 9 9 7 15 19 18 20 21 20 18 16 17 17 16 13 14
40 40 41 41 42 43 43 43 42 40 39 37 37 36 35 33 31 31 31 26 18 13 12 10 4 5 6 4 9 18 15 10 11 8 17 20 20 20 21 24 25 28 23 14 16 23 23 22 17 10 7 5 7 8 7 11 12 13 12 10 12 13 11 12 14 13 9 7 9 10 7 6 9 8 9 21 21 19 20 20 20 18 15 15 15 14 12 13
40 40 41 41 42 43 43 43 43 40 39 37 36 36 35 33 32 32 30 22 14 10 11 9 4 7 6 3 15 27 23 21 22 21 18 16 20 19 19 23 23 25 26 19 16 22 25 25 20 12 8 7 7 5 6 9 10 11 12 8 7 8 9 10 10 13 13 10 11 11 6 5 10 9 10 18 22 21 18 17 18 17 15 14 13 13 12 14
40 41 41 41 42 42 43 43 42 40 38 36 36 35 34 34 31 29 25 17 10 9 10 6 5 8 6 7 16 22 24 27 26 24 23 18 20 22 21 23 22 23 25 22 20 21 25 27 20 11 9 8 6 6 8 9 7 8 9 7 5 4 5 9 10 11 12 11 12 9 4 5 9 14 15 18 23 22 17 16 16 15 15 14 13 13 13 13
41 42 42 42 43 42 42 42 41 39 36 35 35 35 35 32 27 26 22 13 9 8 7 3 7 8 4 10 18 19 18 23 28 28 23 18 18 20 21 24 22 23 24 22 23 22 23 23 16 8 7 8 8 8 8 6 5 5 5 5 5 4 4 8 13 13 11 9 12 11 5 4 8 10 15 18 22 23 18 17 16 15 16 15 14 14 12 12
42 43 43 43 43 43 43 42 40 37 35 35 34 34 34 27 22 24 18 8 7 6 2 2 10 10 4 7 11 14 9 14 23 29 24 19 17 15 20 24 20 20 22 22 22 20 20 17 10 7 7 7 8 7 5 5 5 5 5 5 5 6 5 6 9 14 15 10 11 13 6 3 8 7 16 18 20 23 19 17 17 16 16 15 14 14 13 11
43 44 43 44 44 44 44 42 39 34 33 34 33 34 31 22 20 20 10 3 5 5 5 5 7 8 7 10 10 11 7 13 18 21 21 22 21 19 18 18 14 16 17 19 20 16 14 10 6 6 7 6 6 5 5 7 6 4 5 5 6 7 7 6 8 11 17 14 11 14 9 6 9 9 16 19 21 23 19 18 17 14 13 13 14 14 13 12
44 44 44 44 45 44 43 42 37 31 33 34 32 35 29 19 19 15 4 2 2 4 7 8 6 4 6 8 7 10 10 10 17 20 19 22 23 23 17 12 11 13 12 12 14 12 8 7 5 5 6 7 8 8 8 8 7 6 6 5 6 7 8 10 10 10 17 18 14 13 11 10 11 8 12 17 21 21 18 17 16 15 14 12 13 15 13 13
44 44 45 45 46 45 43 42 35 28 32 32 31 31 20 12 14 7 3 1 1 3 6 5 5 4 8 10 10 15 19 20 14 21 20 22 23 23 19 12 12 13 11 8 10 11 7 5 6 7 8 10 11 11 10 8 9 12 10 7 8 8 8 11 13 12 15 18 14 12 12 12 13 7 8 14 19 18 17 17 13 14 15 13 13 13 13 15
44 45 46 45 46 44 42 41 33 27 30 34 34 26 11 9 8 1 2 6 7 10 13 12 10 11 16 17 18 20 22 27 12 16 21 22 21 17 14 12 12 11 11 9 9 10 8 6 9 11 11 12 14 14 12 11 12 15 13 9 10 10 8 11 14 13 12 15 13 13 13 14 13 9 12 16 18 16 15 16 14 13 14 13 15 14 15 15
45 46 47 46 46 43 41 39 30 25 28 31 28 15 6 11 9 6 11 11 10 13 18 21 18 19 20 19 23 21 13 18 16 8 20 23 18 13 11 12 12 10 11 12 9 8 8 10 13 14 12 12 14 15 14 13 15 15 13 9 8 9 9 12 15 14 10 12 12 14 12 13 13 10 15 19 19 18 15 16 16 16 15 13 15 16 15 13
47 47 48 46 45 43 40 36 28 23 26 27 19 8 8 14 14 16 17 11 11 14 20 24 22 21 22 24 34 27 8 10 18 14 16 22 15 11 10 12 13 10 11 12 9 8 9 13 17 14 12 13 13 14 16 16 15 13 10 9 7 6 7 11 15 14 9 8 9 15 12 10 13 10 14 18 17 16 17 19 17 15 15 14 15 15 14 13
47 48 48 45 44 42 38 33 25 21 25 24 17 12 16 22 23 23 16 10 14 17 18 22 20 19 19 20 29 26 11 11 14 15 14 18 13 12 12 12 13 11 12 14 11 9 10 13 15 13 12 15 15 14 16 15 13 11 9 8 8 9 8 6 11 13 10 6 8 14 11 8 10 9 11 16 16 15 18 20 18 16 14 15 17 16 15 16
47 48 47 44 43 40 35 28 20 24 29 24 17 18 24 27 26 25 14 6 12 15 14 18 16 14 18 17 17 16 11 11 11 13 15 17 12 11 12 12 13 12 12 16 17 14 13 9 11 14 14 16 16 15 15 12 10 11 12 10 8 11 13 9 8 11 10 8 10 12 8 5 7 8 9 13 16 16 18 20 19 16 15 15 17 17 17 18
48 47 45 44 40 38 34 19 16 30 31 20 18 25 30 27 26 26 14 3 7 9 6 9 9 8 17 19 14 10 9 11 13 12 13 16 15 10 10 10 10 13 15 18 18 15 15 10 12 17 16 15 16 14 15 12 8 10 14 14 13 13 14 15 12 9 6 6 10 11 6 4 7 10 9 10 14 16 17 20 19 17 16 16 16 17 18 17
48 46 45 42 37 38 29 9 16 33 24 14 22 30 30 27 29 27 11 2 6 6 0 2 5 3 6 10 9 7 8 10 13 16 16 16 18 11 9 7 6 12 15 14 12 8 11 12 11 16 17 17 16 12 15 14 8 8 11 15 17 15 14 16 15 8 4 4 9 13 8 3 6 10 11 11 14 17 18 20 20 19 17 17 16 16 17 16
49 46 44 39 34 33 21 8 21 26 12 14 27 31 30 29 31 24 7 2 4 3 2 2 1 3 6 2 10 8 6 5 9 17 18 16 17 12 10 10 7 10 10 8 9 8 10 15 14 15 17 16 14 11 13 15 10 7 10 14 18 17 16 16 14 8 4 3 7 13 9 4 5 9 12 13 14 15 17 21 20 19 19 19 18 17 18 18
48 46 42 36 30 24 16 16 21 15 10 20 28 28 29 31 30 16 3 2 3 4 4 4 7 8 13 12 8 12 7 5 9 14 18 18 17 12 11 13 9 10 12 10 10 8 11 17 17 16 15 11 11 12 13 15 12 7 9 13 15 16 16 15 11 8 5 4 5 10 10 6 4 6 10 14 14 13 16 23 22 19 21 20 20 20 19 20
49 45 38 34 26 17 15 18 16 14 19 25 27 28 30 29 20 5 1 4 3 6 8 8 12 12 17 21 6 12 10 5 4 8 16 19 18 13 10 13 12 11 14 15 11 7 9 14 16 15 13 10 11 14 14 15 12 8 11 12 11 14 14 12 10 6 5 4 4 7 9 7 4 5 8 10 12 11 13 21 21 19 22 21 20 22 20 19
50 45 36 31 25 19 20 19 16 17 22 27 28 31 29 19 7 0 2 4 4 8 9 8 13 17 21 21 12 9 11 11 9 4 12 13 15 14 9 9 11 10 11 15 14 11 10 10 13 14 12 10 10 13 16 16 13 10 12 11 8 8 9 8 7 4 5 5 5 6 7 6 5 6 8 8 10 11 10 16 19 18 21 21 20 20 20 18
51 44 33 26 22 20 16 13 16 20 23 28 31 28 19 7 1 1 3 5 7 9 10 12 17 21 23 20 14 14 11 11 12 8 7 8 12 13 9 8 9 8 7 10 12 13 14 11 10 11 13 12 11 11 15 16 16 12 9 8 6 4 5 5 5 6 6 6 6 7 7 7 5 5 9 10 12 15 13 15 22 22 20 20 19 19 19 18
50 41 29 20 18 18 14 14 21 24 24 27 25 15 7 3 0 2 3 7 7 7 10 15 18 19 23 21 14 14 14 8 10 12 7 6 9 10 12 9 6 8 9 8 8 9 13 14 11 9 14 16 13 9 10 12 14 12 7 7 5 3 4 4 4 6 6 5 6 6 7 7 5 4 8 11 11 14 14 13 21 26 24 21 20 19 18 17
49 38 26 17 17 21 21 21 23 22 24 25 16 6 3 3 1 3 5 5 5 9 11 13 18 20 20 18 12 13 15 11 7 11 10 8 9 10 15 14 9 10 9 6 6 7 9 12 14 14 11 15 15 8 7 8 9 11 8 6 6 5 5 5 4 4 4 5 6 7 7 5 5 4 6 10 8 9 13 13 17 26 28 24 22 21 19 18
45 34 25 18 17 21 20 17 19 20 22 19 9 4 4 2 2 6 7 6 7 12 13 13 18 20 17 14 11 16 13 11 15 15 12 7 9 9 11 16 17 12 6 5 6 7 9 9 14 17 8 12 18 12 7 8 8 10 9 6 7 5 5 5 4 4 4 3 6 8 7 3 4 4 5 7 9 8 9 12 12 18 25 24 21 21 20 19
39 30 25 20 19 18 12 10 14 17 16 11 5 4 4 2 4 6 6 6 7 11 14 16 16 15 14 12 11 17 12 10 18 19 12 7 7 10 9 13 17 13 6 5 6 7 11 9 10 15 11 10 17 15 10 9 8 9 8 7 7 6 4 3 3 4 3 1 4 7 5 2 2 3 5 7 9 11 9 10 10 13 21 22 19 19 19 18
39 31 22 19 18 14 10 11 12 14 11 6 4 3 2 3 4 5 5 7 8 11 14 14 11 9 10 9 10 16 15 12 16 14 9 12 12 7 7 9 13 15 11 6 5 5 8 9 8 13 17 17 15 15 14 11 6 6 9 9 7 6 4 3 3 3 3 3 4 5 5 4 4 6 6 8 11 14 14 12 10 12 21 23 20 19 19 19
39 29 18 18 15 8 10 13 11 13 10 4 5 4 1 1 4 5 6 8 9 11 11 9 7 8 10 10 9 15 17 13 12 11 9 13 11 10 10 5 2 4 12 11 9 8 6 7 9 13 18 20 16 14 15 14 8 6 9 8 5 5 6 3 2 3 5 5 4 6 8 6 6 6 7 10 13 14 16 15 11 12 21 23 21 21 21 21
33 23 14 14 9 5 11 15 11 10 7 4 6 5 2 3 5 6 7 8 9 9 8 7 6 7 10 10 10 14 15 11 10 10 10 9 6 14 18 12 15 19 19 17 10 9 9 6 8 13 18 18 15 14 13 15 15 9 8 9 7 6 6 5 3 4 6 5 4 8 11 8 8 7 8 13 15 13 14 16 14 12 18 20 20 21 21 19
23 13 6 6 9 8 15 17 12 7 4 4 4 2 4 5 6 9 9 9 7 6 7 7 7 7 9 10 11 12 11 10 11 9 7 7 8 13 16 12 17 26 28 24 12 8 10 6 6 11 16 16 12 11 10 12 15 12 8 9 8 6 4 5 4 2 4 4 4 6 8 7 7 9 14 17 17 15 13 13 15 14 16 18 19 19 18 17
14 6 5 13 23 21 22 18 10 5 3 5 4 3 6 6 5 7 10 10 6 5 7 8 9 8 9 11 11 9 9 9 11 8 6 8 12 13 11 13 16 24 29 27 14 7 8 6 6 10 12 14 11 11 12 13 13 11 8 9 9 6 3 4 4 3 3 3 3 5 5 5 6 7 14 17 15 16 13 11 13 15 17 19 20 20 18 16
11 4 6 19 32 30 24 13 5 3 3 4 4 4 7 8 8 7 9 10 7 4 6 8 9 9 8 10 9 9 9 8 9 8 7 8 9 7 9 16 19 21 25 23 14 11 7 4 7 9 8 9 11 13 13 14 14 12 8 6 9 8 6 5 5 6 5 3 3 4 3 6 6 4 10 16 15 15 15 11 10 13 19 21 21 21 21 19
8 3 12 25 34 31 17 4 5 5 2 3 7 7 8 9 11 8 8 10 7 5 5 6 9 9 8 9 9 9 9 7 8 8 7 10 9 7 14 22 22 18 17 14 12 14 11 5 7 9 8 8 12 16 17 16 15 14 10 6 8 9 8 7 5 6 6 5 5 4 3 5 6 6 6 15 14 12 14 12 8 11 16 19 20 20 20 20
4 8 21 27 30 26 11 4 6 5 3 6 9 9 9 8 11 9 7 8 8 7 6 5 8 9 8 9 10 11 10 7 7 8 11 13 10 11 19 23 21 18 14 10 11 15 12 6 5 7 8 10 10 11 17 18 15 12 11 9 8 10 10 7 4 5 6 5 5 3 4 5 7 8 1 10 12 11 11 10 9 9 11 17 20 19 18 18
5 8 15 23 30 24 8 4 7 6 7 9 9 9 7 6 10 10 8 7 7 7 6 6 7 7 8 10 9 11 11 7 5 9 11 10 10 14 19 20 19 15 10 10 11 11 10 6 4 5 5 7 7 5 9 15 14 9 10 13 11 11 14 9 4 4 5 7 8 4 3 5 6 7 7 8 10 12 11 11 9 8 10 16 20 19 17 17
7 5 4 15 26 18 5 5 8 7 9 11 11 13 10 6 9 11 10 9 7 6 6 6 7 7 9 11 10 10 10 7 5 7 7 8 10 12 14 19 20 15 13 19 20 12 8 8 5 4 3 4 4 3 4 9 12 7 9 16 15 13 14 11 5 4 4 7 8 5 4 6 6 5 7 7 7 7 9 8 5 6 10 15 18 19 18 17
6 5 4 8 12 8 4 7 9 7 10 11 10 12 13 8 8 10 9 7 6 7 7 7 7 8 8 10 11 11 10 8 7 6 7 9 9 9 14 20 20 18 19 24 22 12 6 7 7 7 6 6 6 6 5 6 13 11 10 15 17 17 14 9 7 5 4 6 6 6 6 4 5 2 3 2 4 5 6 7 7 6 9 12 14 15 16 16
3 4 7 6 5 6 6 8 9 8 10 11 7 9 14 11 8 8 7 6 7 7 5 5 6 7 9 10 11 10 9 10 10 9 9 10 9 11 16 17 16 18 20 20 16 11 6 7 7 10 11 10 12 14 12 6 11 17 16 14 16 20 18 10 8 8 6 7 5 7 8 7 5 4 4 5 4 7 7 8 7 6 9 12 14 15 15 15
2 3 6 7 4 6 7 8 11 11 12 12 8 9 14 12 8 8 6 7 9 5 2 3 7 8 10 11 10 9 8 8 9 8 7 9 10 12 14 15 15 14 14 14 13 9 7 7 8 11 14 13 13 15 13 10 4 8 13 15 15 19 22 16 9 9 8 7 6 7 10 9 6 6 5 5 6 9 8 8 8 7 8 11 15 17 17 14
2 3 4 6 4 7 9 11 13 12 12 10 7 8 12 12 10 8 6 8 9 3 2 3 8 9 10 10 8 7 7 6 8 7 6 8 10 9 9 12 13 12 13 12 12 9 6 7 13 16 15 14 11 11 13 12 6 2 3 11 11 13 21 20 11 9 9 7 7 10 12 9 6 4 3 4 9 10 7 7 9 10 10 11 13 16 15 13
2 2 3 4 5 7 9 10 10 10 9 7 7 7 10 12 13 12 9 9 11 7 3 7 11 10 10 10 8 8 8 7 8 9 8 8 8 6 5 6 9 13 15 11 10 11 8 9 16 16 10 8 7 9 14 13 6 4 2 4 4 3 14 21 16 10 8 7 8 10 9 3 1 7 9 9 11 12 11 11 11 10 10 10 11 13 13 13
3 2 2 3 5 6 7 8 8 7 6 5 6 7 9 11 14 16 13 10 11 10 8 11 13 10 9 10 10 10 9 9 10 12 11 9 7 5 4 5 8 13 14 10 10 12 10 9 12 11 7 5 5 6 14 12 8 7 6 3 3 5 5 15 16 10 7 9 10 8 7 2 2 10 12 10 10 12 13 13 12 11 11 12 11 10 10 11
3 2 0 1 3 4 5 7 7 6 6 5 6 8 9 10 14 16 12 8 10 12 11 12 13 9 8 10 11 9 10 10 12 12 11 10 9 7 7 9 12 12 11 10 9 9 9 9 9 8 7 6 7 9 11 7 6 7 4 1 1 4 5 8 15 13 7 8 8 6 6 7 6 11 13 12 12 12 11 11 11 11 11 12 12 10 9 9
Wind_Direction
4 3 2 2 1 360 358 357 355 353 353 352 349 347 346 345 341 339 337 332 329 326 323 320 317 315 312 312 313 313 317 313 303 285 240 250 255 247 242 235 243 252 213 205 208 203 185 199 210 210 217 215 215 225 231 229 209 195 191 214 242 252 243 260 337 81 28 322 322 275 149 150 177 173 143 134 139 146 150 148 147 134 138 141 137 144 145 143
2 1 1 359 358 357 356 355 353 352 352 350 348 347 346 345 342 339 337 333 329 325 323 320 316 314 310 311 312 317 323 308 292 268 255 259 260 254 249 232 225 237 204 193 204 207 191 191 203 205 209 212 216 217 227 226 209 206 191 198 230 249 235 222 52 84 75 284 281 298 294 198 156 145 155 143 143 154 151 145 140 135 138 134 136 145 146 146
1 1 359 358 356 355 355 354 352 350 349 349 347 344 344 343 342 339 336 331 327 325 323 319 316 312 309 309 313 329 323 305 286 261 273 275 256 245 243 231 210 216 209 194 199 207 207 195 194 201 206 212 217 213 215 218 214 206 197 217 228 238 239 200 186 128 147 240 280 304 263 225 162 139 165 142 142 163 153 143 141 137 138 139 144 149 148 148
1 360 359 357 356 354 353 352 350 349 348 348 346 343 342 341 340 338 335 331 327 326 323 320 316 310 308 310 314 342 319 297 265 249 291 309 256 231 227 225 207 205 212 201 199 210 221 208 193 198 205 214 218 216 216 212 212 199 196 230 230 222 231 187 152 132 161 216 265 287 266 246 156 131 154 140 141 158 144 148 149 143 142 144 148 151 149 149
0 359 358 356 355 354 352 350 348 348 347 346 344 343 342 341 340 337 335 331 328 326 323 320 316 311 311 313 332 14 322 290 213 235 358 2 303 214 212 215 205 203 207 202 205 217 230 225 204 199 204 218 218 218 224 213 212 213 202 229 232 187 208 188 143 169 185 202 233 264 273 273 99 120 142 133 144 162 146 150 146 143 144 147 150 153 153 152
358 357 357 355 354 352 350 349 347 346 345 344 344 343 341 340 339 337 335 331 329 327 324 321 317 316 313 324 84 107 256 270 326 29 38 24 27 159 195 201 202 203 199 197 209 219 230 230 216 204 204 218 219 217 225 217 215 226 207 226 224 177 197 192 173 197 187 206 233 247 259 127 89 42 137 134 153 178 151 146 141 143 145 148 151 157 163 159
356 356 355 353 352 350 349 348 346 345 343 343 343 342 339 338 338 337 336 333 330 327 324 321 317 320 327 45 103 226 221 270 279 257 280 352 18 76 184 191 196 194 192 195 206 217 222 224 219 210 205 214 224 223 228 223 218 229 225 228 213 180 191 180 182 200 192 216 228 231 262 193 123 142 234 153 157 178 155 145 141 143 145 147 153 162 171 166
356 355 354 352 351 349 349 347 345 344 342 342 341 340 338 336 336 335 336 334 330 326 322 316 316 319 345 105 201 247 221 252 260 240 246 270 340 69 176 186 191 185 190 197 203 214 220 223 217 211 210 210 222 225 232 234 223 223 228 239 216 186 194 180 178 195 207 220 209 213 256 231 157 152 197 149 145 163 150 140 142 146 148 151 159 164 171 172
356 355 353 351 350 348 347 346 345 343 342 341 339 337 335 334 335 334 336 334 329 323 317 311 315 317 178 189 255 268 244 251 261 240 235 234 214 166 167 181 188 186 194 204 209 218 220 224 216 214 219 211 219 227 234 237 229 219 218 233 228 204 197 177 180 198 210 219 188 190 220 238 177 125 150 152 143 144 136 139 145 150 154 157 163 165 168 169
356 354 352 350 348 347 346 345 344 343 341 339 337 335 333 334 334 333 333 331 328 319 310 308 311 306 185 226 228 247 254 266 285 245 220 213 191 166 166 179 185 188 201 207 213 222 222 228 216 215 230 223 221 226 234 236 237 233 221 223 226 227 209 175 187 203 201 224 218 206 204 220 181 144 171 155 140 135 135 143 150 154 158 161 163 165 166 167
355 353 351 350 348 346 345 344 343 342 341 337 335 333 331 333 331 331 330 327 325 312 304 304 299 226 206 232 205 236 252 282 315 227 198 197 186 171 171 179 182 188 201 207 214 220 226 236 226 215 225 226 237 236 239 242 252 254 239 228 220 227 222 179 188 211 203 223 237 231 215 204 191 193 176 142 141 144 145 147 153 157 159 162 165 164 166 170
355 353 351 349 347 346 344 343 342 341 339 335 332 331 330 331 330 330 326 322 319 304 300 298 276 207 221 253 226 234 249 272 299 249 194 189 190 191 181 177 184 189 194 203 216 220 228 240 236 228 217 205 240 251 250 243 253 264 259 251 222 220 226 192 189 205 203 212 225 224 222 198 197 210 160 144 146 149 151 152 155 159 160 164 167 165 168 173
355 353 350 348 346 345 344 342 341 340 338 333 330 330 330 330 330 330 324 318 311 293 297 295 237 209 221 251 236 242 263 281 288 286 264 223 197 201 190 182 189 192 195 203 214 219 227 240 242 238 234 221 225 244 265 247 243 253 256 263 238 219 224 209 204 204 196 203 212 210 223 197 184 206 187 151 144 148 155 157 158 161 162 165 167 166 171 174
355 353 350 347 346 345 344 342 340 339 336 331 330 329 330 331 331 330 323 315 307 289 294 297 188 190 219 257 261 261 267 275 283 281 275 252 203 190 189 192 193 193 197 207 217 223 227 236 243 241 240 242 247 251 258 256 245 246 244 243 240 230 207 202 217 220 205 199 194 197 231 215 191 200 192 155 144 151 157 158 160 163 162 165 165 166 174 177
355 353 350 347 346 345 345 342 340 338 334 331 329 329 331 332 330 325 319 309 308 294 294 297 187 197 260 261 272 286 269 261 265 255 254 256 217 188 186 193 197 198 197 204 218 230 231 231 235 236 239 244 256 260 259 265 259 242 237 231 221 224 234 214 208 210 219 209 181 193 226 222 222 195 165 155 151 151 155 159 162 166 166 163 162 165 176 180
354 352 349 347 345 346 344 342 340 337 334 330 329 331 333 332 325 321 318 303 299 290 258 176 196 208 276 272 283 302 262 233 246 242 241 247 234 209 188 185 198 205 201 204 214 229 237 231 223 225 235 236 237 246 258 268 258 228 216 234 219 201 227 249 218 196 205 222 192 195 211 206 232 189 159 167 155 147 155 163 165 168 167 162 160 166 175 177
354 351 349 346 345 345 344 342 340 336 333 330 329 332 332 331 325 321 320 298 296 268 215 229 216 203 249 273 301 307 242 213 229 232 235 235 233 227 199 179 192 205 205 209 212 225 237 230 212 209 222 229 224 222 233 238 239 235 209 219 237 216 204 222 240 208 193 209 208 193 196 218 231 199 175 172 149 148 160 163 164 165 167 162 159 169 174 173
353 351 349 346 345 345 343 343 340 335 332 329 329 332 331 331 327 321 306 240 261 233 230 255 253 213 246 260 284 291 276 247 219 213 224 224 226 234 220 186 183 195 205 210 210 218 228 224 208 203 212 218 220 212 216 222 220 237 223 200 229 238 223 209 222 219 189 197 210 190 187 219 235 217 181 162 145 150 157 158 163 164 171 169 159 170 173 173
353 351 349 347 345 344 343 343 340 334 332 328 330 333 332 329 324 305 218 245 309 264 258 253 220 229 295 290 278 276 291 297 241 200 211 214 214 231 233 207 185 190 201 202 200 203 209 220 212 212 211 207 215 218 219 221 220 235 235 207 208 224 238 226 223 224 190 187 203 191 181 209 231 216 154 138 137 144 151 159 169 167 173 174 166 172 171 174
353 351 350 348 344 344 343 343 340 334 331 328 329 331 334 346 339 263 270 299 281 263 258 257 241 250 280 286 288 288 299 309 286 190 200 207 201 213 230 216 189 192 204 200 193 194 203 221 221 218 211 204 210 220 228 227 226 238 244 228 208 209 231 238 238 239 196 176 193 192 179 196 218 198 145 131 136 150 157 165 174 173 173 173 170 172 170 175
352 351 351 348 345 344 344 344 342 336 334 331 329 330 2 6 353 329 320 297 262 251 250 252 244 246 258 264 275 286 305 312 306 234 205 203 196 196 213 213 195 196 203 199 194 188 201 224 226 217 210 211 209 213 226 233 233 237 249 255 225 208 220 228 240 247 207 176 188 187 179 194 208 190 156 146 149 162 170 175 180 179 177 174 170 170 168 170
352 351 350 348 346 344 343 345 343 339 341 339 338 356 14 357 340 326 321 300 271 256 250 251 244 246 250 249 259 266 278 282 290 285 216 193 196 194 195 206 202 199 194 196 201 188 203 228 226 212 204 214 215 209 214 226 235 236 242 259 258 239 229 220 235 246 211 175 181 180 182 202 204 189 167 160 160 164 167 174 181 179 174 173 170 166 164 165
351 350 349 348 346 343 342 345 344 347 346 336 342 6 356 343 336 331 321 300 288 270 248 243 239 241 241 241 251 251 242 240 260 277 229 189 194 199 196 205 200 202 195 195 205 194 207 226 218 210 205 209 217 216 212 218 230 237 235 240 253 256 254 226 226 239 222 182 170 176 182 202 200 192 175 163 159 161 161 165 176 182 176 172 170 165 164 167
351 349 348 346 344 342 342 343 346 352 344 332 345 359 347 338 336 336 325 283 289 282 253 236 229 236 235 231 240 234 222 225 232 261 236 194 189 199 204 206 196 205 205 198 207 213 224 217 191 209 216 206 213 219 215 215 217 229 236 234 240 244 252 256 231 232 229 194 173 172 180 202 195 194 185 164 160 165 168 169 175 182 178 170 167 165 168 171
350 348 347 345 343 341 340 345 355 348 340 338 355 349 339 335 334 334 329 283 284 278 250 227 213 235 239 228 233 227 211 225 224 241 239 200 189 195 205 208 199 208 207 201 207 220 232 215 179 203 217 212 213 215 217 218 210 221 230 234 242 242 246 259 255 237 225 206 183 167 169 222 206 198 194 172 169 173 174 176 177 177 176 172 167 168 171 174
348 347 347 345 341 342 344 353 346 338 332 338 348 339 332 331 330 329 324 283 284 271 3 137 181 233 251 212 212 226 223 229 224 233 244 213 195 199 212 207 199 210 206 201 210 222 226 220 202 201 207 214 216 215 215 216 217 217 214 224 240 251 252 258 266 255 214 216 192 170 162 214 207 201 200 183 181 182 178 180 181 177 177 176 172 171 172 174
347 346 347 344 341 345 348 325 327 332 330 330 335 333 329 327 324 323 314 234 280 297 48 76 238 357 357 210 180 199 237 190 192 227 238 220 201 203 219 211 197 208 202 197 217 216 202 211 219 210 203 209 215 217 212 210 223 222 197 206 224 242 253 257 269 267 238 247 208 183 162 161 203 205 202 191 189 190 180 180 184 179 178 179 177 174 172 174
345 344 346 343 340 347 341 317 320 321 310 321 328 328 324 321 318 315 309 270 295 3 17 350 341 350 345 329 203 203 254 149 163 217 226 222 208 196 218 221 209 203 201 210 217 197 192 206 217 219 213 208 208 212 210 210 223 226 208 209 211 222 240 253 264 268 268 295 240 196 167 161 223 221 201 192 197 200 180 177 183 181 179 179 177 176 175 176
344 343 345 341 339 352 348 326 311 296 307 322 326 324 319 313 309 299 189 287 304 5 348 342 348 344 341 338 285 221 250 227 193 200 204 220 218 205 220 222 223 216 207 224 230 198 198 205 208 222 227 215 205 203 205 214 221 218 223 231 220 210 220 239 250 267 290 291 253 208 183 179 216 220 201 194 203 207 179 176 183 181 180 181 178 177 178 177
343 342 344 340 335 344 343 328 311 306 319 329 326 321 315 305 302 253 250 292 331 352 347 354 355 343 339 342 330 283 259 249 274 226 189 210 215 214 216 206 229 242 218 224 234 230 228 208 198 215 230 227 214 198 198 211 217 211 217 234 243 219 205 219 235 256 282 267 242 228 214 208 217 213 202 192 196 195 176 175 184 184 181 182 179 176 177 174
342 341 341 335 327 329 325 312 318 317 316 325 325 320 313 294 150 259 275 342 336 340 355 353 350 344 338 338 327 311 292 256 264 261 213 202 206 210 206 195 217 241 242 229 225 228 236 229 206 203 214 225 233 214 196 200 209 212 208 213 240 250 202 197 209 221 241 255 252 249 248 242 238 229 213 200 190 188 182 175 180 184 182 181 182 176 174 175
340 341 340 330 321 317 296 286 312 315 311 321 323 317 311 303 140 249 326 359 334 338 1 347 342 340 333 328 312 307 312 289 256 258 245 204 205 206 203 204 192 204 235 238 215 216 227 235 236 215 202 210 227 225 199 194 198 207 207 190 204 234 204 197 200 208 225 247 258 264 267 250 240 240 211 201 196 194 196 185 175 180 182 179 180 177 173 174
340 340 336 324 314 306 295 291 300 306 313 320 316 293 290 302 347 353 343 354 337 334 343 339 333 329 326 320 318 333 334 331 315 281 265 233 219 211 205 208 200 199 220 234 220 215 218 228 236 235 210 198 214 222 195 192 189 196 203 183 185 197 191 197 204 205 221 237 242 260 274 251 239 255 202 196 215 208 200 196 175 174 181 179 175 176 173 172
340 341 335 324 311 303 297 286 286 299 314 317 307 289 292 274 2 359 342 343 335 326 330 338 330 323 321 314 338 7 352 337 350 331 304 266 224 214 204 206 212 217 215 222 229 224 222 220 220 228 218 181 203 221 207 183 182 197 201 186 189 194 186 190 192 186 194 212 212 231 252 214 193 222 191 199 241 245 207 196 181 169 175 179 174 171 170 171
342 344 339 327 311 308 312 299 297 311 318 313 297 310 327 330 357 358 349 346 335 322 326 334 328 317 317 318 350 5 347 332 347 339 330 326 261 228 204 196 209 222 218 215 228 226 231 232 209 216 228 200 196 211 217 193 184 195 194 195 200 195 182 169 168 166 157 180 199 212 238 221 196 226 195 194 228 250 242 210 197 169 162 168 171 169 169 171
344 346 341 323 310 307 327 340 329 318 312 305 296 312 342 321 335 353 350 344 334 327 328 330 331 321 318 329 348 347 341 344 345 338 339 334 313 266 227 197 193 212 227 234 235 230 234 236 204 197 219 226 205 197 210 210 189 175 192 205 189 180 188 148 153 171 168 224 217 213 243 252 268 271 238 206 205 225 239 232 214 175 158 161 165 167 169 172
343 341 324 309 309 296 313 332 329 309 301 291 282 283 269 313 345 354 345 342 333 329 329 326 340 342 328 331 338 340 342 342 339 343 338 323 333 359 336 308 114 229 253 265 258 244 251 247 220 197 206 223 218 200 207 218 209 171 188 192 150 184 216 165 158 184 188 220 212 206 224 216 216 240 242 229 215 213 221 226 224 181 163 164 164 167 171 171
333 323 295 293 302 280 315 327 317 301 298 279 280 292 338 352 351 351 344 342 335 335 334 321 336 347 333 327 330 337 340 336 338 344 335 320 343 11 358 346 359 353 327 316 298 249 259 264 231 213 203 208 214 206 204 217 221 206 174 162 160 209 213 173 193 190 182 215 219 212 218 209 202 200 204 221 223 217 210 212 217 188 164 164 165 169 171 168
332 322 287 338 2 340 331 325 300 284 283 282 285 311 349 347 358 358 338 322 326 335 325 316 328 334 326 323 322 332 339 335 336 339 334 331 323 343 2 2 344 343 338 334 324 260 263 265 239 229 205 191 198 208 201 204 217 217 181 164 182 208 182 166 206 203 178 201 211 219 218 213 218 199 194 208 214 213 208 201 203 187 162 162 165 168 171 165
339 327 274 358 6 344 330 322 288 251 253 276 288 344 355 342 346 346 315 305 333 344 317 322 327 319 316 319 319 333 342 330 331 329 313 321 319 322 357 12 347 337 334 330 325 297 274 244 250 253 214 189 189 206 204 190 198 213 201 178 183 189 163 173 203 214 208 202 194 217 230 231 237 206 193 199 202 202 200 192 193 182 164 163 165 167 170 167
324 320 282 343 349 333 325 325 291 267 253 262 284 333 356 333 317 331 322 326 351 344 320 323 314 309 316 322 328 338 335 324 323 321 307 320 329 325 348 358 349 338 335 333 333 337 326 264 261 265 237 208 194 194 199 191 188 203 212 187 178 180 174 180 205 212 208 230 218 207 242 247 250 244 197 193 194 194 189 181 180 175 168 168 169 167 168 169
312 328 300 323 339 338 333 318 297 301 286 326 324 338 359 337 317 331 339 336 340 326 324 317 309 321 328 324 329 329 323 320 315 314 321 325 323 315 329 340 342 340 337 324 317 329 330 294 262 257 254 249 216 191 186 188 189 197 213 208 180 181 183 181 197 199 193 231 247 231 261 259 267 289 209 185 183 179 177 173 168 178 175 170 172 169 166 170
323 314 301 315 345 357 348 291 311 315 326 344 331 333 353 336 310 315 336 341 338 328 329 326 327 338 330 318 319 315 314 317 316 326 330 321 316 320 325 332 337 338 334 321 321 333 333 310 274 269 261 263 252 203 179 181 186 195 210 215 201 189 186 180 181 172 174 213 228 232 265 264 283 313 357 152 154 148 160 171 172 182 175 165 170 170 163 168
312 302 303 327 351 359 349 325 341 331 327 333 322 319 331 325 313 319 336 337 325 324 331 332 337 337 318 311 309 310 318 326 330 332 327 313 313 321 323 328 333 331 326 324 328 332 324 308 313 313 265 241 257 235 182 179 185 195 200 207 221 203 180 180 190 162 172 206 199 192 246 258 278 323 23 86 119 132 158 180 180 177 167 163 167 167 163 165
310 295 294 335 345 350 358 4 354 340 335 340 336 325 319 326 327 321 323 321 316 335 340 323 330 333 318 312 307 311 327 341 333 317 312 310 313 316 323 326 324 320 310 312 317 315 292 279 289 305 269 235 229 218 196 182 183 200 197 196 216 219 189 181 181 160 185 208 198 188 225 266 293 356 37 58 88 124 165 171 155 150 151 158 166 166 165 165
325 321 323 340 340 340 350 354 357 358 342 339 339 321 313 325 327 314 318 322 320 334 325 309 328 333 316 316 318 320 336 343 324 302 307 319 317 315 323 321 314 311 308 311 319 323 282 262 261 248 247 258 261 267 271 200 180 188 198 192 203 219 212 181 161 184 190 179 197 205 182 223 289 5 65 94 102 111 132 109 83 101 125 145 164 167 166 166
340 322 334 353 338 332 348 349 353 355 332 323 323 312 313 321 323 321 331 328 324 338 325 305 330 332 316 323 325 324 339 335 309 302 314 319 316 312 317 315 307 310 316 318 327 332 296 280 275 260 260 264 268 281 293 264 189 182 192 197 195 206 218 207 175 188 163 139 204 224 164 160 241 247 233 222 148 106 103 102 97 107 121 141 161 169 170 166
3 315 345 10 347 328 337 326 323 322 311 313 320 311 311 317 325 329 328 315 320 357 61 302 318 322 314 322 324 320 336 329 302 306 319 317 320 321 322 320 314 323 336 329 330 333 298 294 316 302 293 290 283 285 294 294 251 173 189 206 199 196 210 216 195 176 156 146 201 203 157 160 209 223 231 217 142 113 110 113 105 97 105 129 153 165 166 155
351 299 344 20 352 310 305 301 304 306 307 317 320 304 308 320 327 324 318 314 316 334 117 300 318 324 314 318 321 313 325 324 304 310 314 308 318 325 327 323 318 335 351 334 324 327 302 311 335 326 303 293 296 301 296 287 290 46 175 215 217 201 202 211 213 187 167 165 187 174 160 175 198 165 108 87 102 102 99 93 84 85 92 107 136 150 147 136
359 314 335 356 319 296 295 300 306 308 311 317 311 310 324 331 331 327 321 315 311 312 314 308 315 321 314 312 311 302 312 316 301 301 303 303 313 317 318 315 307 319 332 333 325 322 320 326 331 328 312 300 319 319 302 292 290 329 319 236 273 264 201 203 213 212 183 171 184 166 147 173 200 109 90 72 81 84 76 70 70 74 79 90 119 134 129 126
298 300 329 323 305 300 300 307 311 307 306 312 313 324 332 328 329 327 316 308 310 318 328 317 311 311 309 305 298 298 311 307 290 289 288 285 290 291 287 288 293 306 317 324 320 317 319 323 325 333 332 331 356 307 286 298 310 287 271 256 335 349 226 204 205 215 195 169 178 162 130 149 148 107 94 72 72 78 73 69 70 68 61 69 93 109 112 119
305 295 299 283 289 296 299 303 304 301 304 312 312 310 308 316 328 325 315 315 320 321 325 315 305 305 305 299 299 311 320 305 289 285 281 277 276 267 261 268 274 282 295 306 308 306 309 314 327 344 336 326 335 301 280 308 316 265 251 299 34 12 322 224 201 210 205 159 163 165 161 185 161 108 96 83 75 76 78 77 79 77 66 65 77 85 92 99
Height
810 808 805 803 800 798 795 793 791 788 787 784 782 780 778 776 773 772 770 769 767 765 764 763 761 761 759 758 757 755 754 752 750 752 745 726 724 732 734 736 737 739 742 745 747 748 750 752 751 751 753 753 754 753 751 747 744 755 770 782 786 783 776 764 761 763 762 762 760 757 756 763 766 754 744 745 750 753 755 756 755 756 757 760 765 771 774 778
809 807 804 802 800 797 795 792 790 787 785 783 780 778 776 774 772 770 769 767 766 764 762 761 760 758 757 756 755 754 753 750 749 746 729 718 724 728 729 733 736 738 740 742 744 745 748 750 749 750 753 756 754 751 752 746 744 758 770 779 781 772 761 750 751 753 755 760 757 752 750 755 758 752 745 753 761 756 760 762 758 762 762 762 766 771 775 778
808 806 803 801 798 796 793 791 788 786 783 781 779 776 774 772 770 768 767 765 764 762 760 759 757 756 755 755 754 754 752 750 748 734 715 713 720 720 724 730 733 736 737 739 741 742 744 745 745 748 753 757 753 750 754 748 746 753 762 777 772 757 750 743 743 747 749 751 752 753 749 749 746 743 745 754 761 759 763 764 762 768 767 766 767 769 774 778
808 805 802 800 797 795 792 789 787 784 782 780 777 775 773 770 769 767 765 763 762 760 758 757 755 754 753 753 753 753 752 752 741 720 710 711 712 713 719 725 729 733 735 737 740 741 741 741 742 745 752 758 752 748 752 748 747 749 756 768 757 746 749 742 738 741 742 745 748 750 749 748 738 735 743 751 764 765 761 758 759 764 765 766 767 768 773 777
807 804 801 799 796 793 791 788 785 783 780 778 776 774 771 769 767 765 763 761 760 758 756 755 753 752 752 752 752 752 755 752 729 711 711 710 708 711 715 721 727 730 733 737 739 740 740 739 740 745 751 756 754 751 751 741 739 748 749 750 743 742 749 741 735 738 739 742 746 748 749 745 736 738 743 749 765 766 755 751 751 755 758 761 764 767 771 775
807 804 801 798 795 793 789 787 784 781 778 776 774 771 769 768 765 763 762 759 758 756 754 753 752 751 751 751 752 752 755 743 718 710 712 709 710 710 713 719 724 728 732 736 737 738 739 738 741 747 751 753 754 752 749 736 734 749 748 739 737 738 742 738 734 735 735 741 746 746 740 736 741 748 745 748 757 752 743 744 747 751 754 758 762 765 769 773
806 803 801 797 794 792 788 785 782 779 776 774 771 769 767 765 763 762 760 758 757 754 753 751 750 750 750 751 752 752 755 736 711 711 712 709 712 711 714 719 722 728 730 733 735 736 738 739 742 744 748 752 751 748 743 734 732 745 747 736 732 732 735 734 732 732 733 739 739 735 734 736 748 754 746 746 746 741 739 740 744 750 753 758 763 766 768 769
806 803 800 797 794 791 787 784 781 778 775 772 769 767 765 763 762 760 758 757 754 753 752 750 750 750 749 751 751 752 751 727 705 709 711 710 713 712 716 719 723 727 728 731 731 732 735 738 740 739 747 750 745 743 738 736 736 739 742 734 728 730 730 728 729 731 732 732 730 732 737 737 740 744 745 744 740 737 737 740 745 750 754 760 764 766 768 769
806 803 799 796 793 790 787 783 780 777 773 770 767 765 763 761 760 758 757 755 753 753 750 749 750 748 750 750 750 752 735 708 702 708 710 710 712 712 714 717 722 725 726 728 727 730 734 736 735 733 742 742 739 740 734 741 744 733 732 730 727 728 725 726 730 730 730 727 728 736 742 736 728 734 746 743 737 736 736 743 748 751 757 760 763 765 767 769
805 802 799 796 792 789 785 782 779 775 772 769 765 763 761 759 758 756 755 753 752 751 749 750 748 747 751 748 751 749 717 698 704 706 707 710 711 712 713 715 719 722 724 725 725 727 728 729 727 723 732 735 734 736 732 738 736 723 723 724 724 725 720 724 729 726 726 726 726 737 746 739 726 735 751 742 732 735 739 747 749 752 758 759 762 763 765 768
804 801 798 794 791 788 784 780 777 773 770 766 764 761 759 757 755 754 752 751 750 749 748 748 747 749 750 748 753 740 705 698 704 701 707 709 709 711 711 713 716 719 722 723 723 723 723 722 718 721 731 732 732 734 729 726 723 718 720 723 722 721 719 721 727 725 726 728 724 730 742 738 730 738 745 735 731 736 741 749 751 754 758 758 761 762 764 766
803 800 797 793 790 786 782 779 775 772 768 764 762 759 757 755 753 752 750 749 748 747 747 746 748 748 748 750 745 721 699 701 703 703 709 707 707 709 709 712 713 716 718 720 721 719 721 718 715 725 730 728 735 738 729 717 717 718 719 729 727 722 724 722 723 723 725 730 720 724 746 747 740 740 735 728 729 734 741 748 751 754 756 757 759 761 763 764
802 799 796 792 789 785 782 777 773 770 766 762 759 756 755 752 751 750 747 746 746 746 745 746 746 746 751 746 723 705 701 701 701 705 708 708 708 707 709 711 710 713 716 717 718 717 719 716 716 722 720 725 734 731 721 713 718 723 721 730 733 734 735 721 718 720 723 726 713 725 759 759 742 736 731 727 728 735 744 747 749 753 754 756 758 760 763 763
802 799 795 791 788 785 781 777 773 769 764 761 757 754 752 749 748 747 745 744 744 744 744 744 745 747 750 735 708 703 704 699 702 702 702 705 706 706 708 709 710 712 713 715 716 715 716 714 714 718 716 721 724 718 720 721 722 726 728 731 736 747 743 720 715 720 724 721 706 726 761 757 738 731 727 724 726 735 745 746 747 750 752 754 757 759 761 760
802 798 794 791 787 784 780 776 772 768 764 759 755 753 749 747 746 743 743 743 742 744 743 744 745 745 746 729 705 700 700 700 701 697 698 701 702 703 704 706 709 709 711 713 714 714 713 712 715 722 721 716 719 727 734 733 727 727 740 746 740 746 743 722 712 716 724 718 705 727 757 751 734 725 720 719 724 732 742 745 745 747 749 752 755 758 760 759
802 798 794 790 786 783 779 775 771 767 763 759 755 751 748 746 743 742 742 740 742 742 742 744 742 744 745 724 702 697 697 698 695 693 696 698 698 700 700 704 706 708 710 710 711 711 709 710 715 719 722 722 727 737 743 746 741 732 742 753 744 743 746 733 716 707 714 718 713 725 746 747 732 719 715 715 720 730 739 743 743 745 747 749 753 755 758 759
802 798 794 790 786 782 778 774 770 766 763 758 754 750 747 745 742 741 740 740 742 741 741 741 739 745 736 710 701 700 694 693 692 693 695 695 697 697 697 701 704 706 707 708 710 710 709 712 716 719 723 728 731 737 752 762 757 743 739 746 741 738 743 741 728 708 705 719 721 722 734 739 727 714 712 711 716 728 737 741 742 743 745 746 750 753 755 758
803 799 794 790 785 782 778 774 770 766 763 758 754 750 747 745 742 740 740 740 740 740 742 739 741 747 727 705 706 701 690 691 691 692 694 694 695 696 695 698 701 705 709 712 711 711 715 714 718 728 730 731 731 737 754 759 753 748 742 743 743 736 736 737 729 710 704 718 723 725 732 732 721 712 709 709 713 725 733 736 739 741 743 745 748 751 753 755
803 799 794 789 785 781 777 774 769 765 763 758 754 751 746 743 741 739 739 740 742 744 744 738 740 740 719 703 702 695 689 690 689 689 690 692 694 694 694 695 698 705 715 721 718 714 717 721 725 733 734 733 731 732 740 741 737 739 735 735 740 738 733 725 715 701 698 715 723 724 731 728 721 715 710 711 714 723 731 734 737 740 741 744 746 748 750 753
802 798 794 789 784 780 776 773 768 765 762 758 754 750 746 745 743 742 739 739 741 740 737 732 729 725 713 703 695 693 692 687 687 687 685 688 691 693 694 694 699 708 715 721 722 712 715 731 733 728 728 726 726 725 726 727 727 729 728 728 729 732 731 716 706 694 688 711 723 716 722 724 719 714 710 714 720 725 730 734 736 738 739 741 744 746 747 749
800 797 792 788 784 779 775 771 768 764 762 759 755 752 751 752 754 750 739 733 732 731 727 721 718 715 709 703 693 693 699 692 686 684 684 684 686 696 699 696 706 714 712 714 717 711 717 732 726 716 719 718 718 720 722 724 724 725 727 727 725 726 724 709 700 692 682 704 719 709 716 721 714 711 707 708 720 727 728 732 735 735 736 738 739 742 744 745
799 795 791 788 783 778 774 770 768 764 762 759 757 756 756 757 759 756 745 734 724 721 718 709 709 706 700 700 692 693 706 705 695 684 680 682 685 696 699 697 708 713 708 711 717 721 727 725 713 708 711 711 714 715 718 724 723 725 725 728 730 722 717 707 696 689 683 699 713 709 715 719 708 705 705 704 712 719 719 723 728 730 733 735 737 739 741 743
798 794 791 787 783 779 773 770 768 764 763 761 759 759 758 758 756 754 752 743 724 709 704 700 701 701 697 697 691 693 705 706 702 689 676 680 686 690 695 698 706 708 708 712 717 726 728 713 703 704 705 709 715 713 716 722 723 725 724 729 732 720 719 720 702 690 685 691 703 706 713 716 707 704 704 702 704 708 710 714 718 721 726 729 730 732 736 740
798 793 790 786 782 779 773 770 768 765 764 761 761 761 759 758 755 753 751 747 732 703 688 689 692 694 692 690 688 692 700 697 696 688 672 677 685 686 691 695 702 707 706 706 710 716 713 699 695 701 702 707 715 714 716 723 725 723 719 723 726 716 716 717 703 691 687 688 690 702 721 721 710 712 710 702 702 705 706 709 715 717 718 722 724 727 730 733
798 794 790 785 782 778 773 771 768 767 765 761 762 761 759 758 754 754 751 750 740 704 680 683 688 688 683 685 688 688 693 691 685 680 669 670 679 685 690 687 695 707 704 701 707 710 704 692 691 701 704 704 711 714 712 717 725 724 716 713 713 710 708 706 700 697 706 711 693 699 738 740 714 712 713 705 706 709 707 708 714 715 715 718 722 725 726 729
798 795 791 787 783 778 774 771 770 770 765 763 763 760 760 758 754 754 753 758 747 704 682 687 687 686 681 683 685 686 696 690 674 672 668 666 669 676 689 687 686 697 696 696 702 702 696 689 688 698 703 703 708 711 706 706 721 725 711 702 703 704 705 704 701 704 717 721 694 689 730 745 723 713 708 704 708 710 707 708 709 711 713 715 718 720 723 726
798 794 791 788 783 780 777 774 774 772 768 766 764 761 759 756 754 753 756 767 744 696 685 693 690 689 686 683 680 690 702 685 670 670 664 666 666 667 686 689 686 690 685 693 705 696 688 691 692 692 698 703 707 708 700 698 715 719 699 694 701 702 705 704 702 708 708 704 695 686 705 732 734 717 701 697 706 708 708 710 708 707 709 711 712 714 717 720
797 794 791 788 784 783 781 778 776 773 771 768 764 763 759 755 755 752 764 774 731 688 694 698 689 689 687 683 679 685 685 672 677 675 657 662 665 667 684 686 685 689 679 690 705 690 680 691 693 690 696 701 700 698 691 692 706 705 688 688 695 697 701 700 702 708 701 704 716 700 696 727 737 713 694 695 703 707 709 710 707 705 706 706 707 709 711 713
796 792 790 787 784 783 782 780 777 773 771 768 765 763 758 756 755 754 774 773 721 695 707 700 693 697 695 690 685 682 676 669 676 668 655 662 662 663 680 679 679 686 679 682 693 685 677 679 681 685 692 692 687 684 682 689 697 690 682 685 687 690 695 697 704 708 706 718 731 710 699 726 736 713 699 703 704 704 705 705 703 700 701 701 702 704 706 708
794 791 789 787 783 782 781 779 777 774 770 767 765 761 756 756 758 767 784 768 726 715 718 709 711 714 709 705 697 688 683 677 669 661 660 666 662 662 669 670 674 682 681 678 682 681 670 664 668 675 679 677 674 674 674 680 683 681 684 690 692 692 693 698 702 705 721 732 726 709 699 715 732 717 699 699 696 691 695 702 702 698 697 698 697 698 701 704
793 790 788 786 784 783 782 779 776 773 770 768 764 759 758 757 761 778 781 754 732 731 727 723 726 722 717 719 712 697 687 680 671 669 673 672 671 673 673 677 682 688 692 686 682 679 673 671 668 663 664 665 669 672 669 669 672 679 688 696 706 706 702 710 711 713 738 743 719 703 697 708 729 718 692 683 677 673 680 690 697 697 696 695 694 694 697 700
792 789 786 785 784 783 782 778 774 771 769 768 764 761 764 766 769 775 767 750 746 745 739 739 736 730 725 721 715 703 692 685 675 672 677 678 679 678 678 683 687 698 707 696 688 686 680 674 666 660 656 657 670 678 674 671 672 681 691 700 720 728 724 733 735 729 740 736 709 697 700 709 716 700 680 675 670 665 665 669 679 687 689 690 690 691 692 695
791 787 784 783 783 781 779 776 773 772 769 767 765 763 768 778 778 772 764 759 758 750 745 746 740 735 731 722 714 706 701 697 687 680 677 676 680 678 675 675 676 692 702 695 695 695 689 678 666 665 660 651 662 679 684 682 679 685 693 702 722 735 741 750 745 736 737 728 705 695 702 712 709 687 670 667 663 659 657 656 663 671 676 680 682 685 688 691
790 786 784 781 780 778 776 774 773 772 769 766 766 766 772 781 777 769 767 765 760 752 747 748 742 736 732 727 722 717 717 711 700 697 690 680 681 680 677 674 671 677 687 693 694 692 699 694 671 664 662 651 655 665 670 674 678 681 679 688 707 716 728 741 739 736 736 725 710 705 708 710 706 685 662 656 654 650 651 651 651 658 666 671 674 679 684 687
788 785 783 780 778 776 773 774 773 772 770 768 768 772 778 781 774 770 770 764 761 757 751 749 746 742 735 730 728 727 728 724 713 709 704 695 687 677 673 674 673 674 684 697 692 680 691 688 660 652 652 647 653 653 649 661 679 676 668 683 697 693 701 715 718 716 718 722 718 712 706 693 682 669 652 651 653 647 649 650 649 656 661 668 676 679 682 685
786 783 782 779 777 775 774 774 772 771 770 770 776 778 778 777 771 768 766 762 761 760 757 755 751 749 745 739 737 733 729 730 728 722 717 709 695 677 669 666 666 671 678 688 686 679 686 678 651 648 649 642 646 646 642 655 673 673 674 684 680 671 683 705 713 704 708 729 725 707 703 691 681 675 657 654 658 652 651 651 652 656 657 664 674 676 678 681
786 783 782 778 775 775 774 773 772 771 769 772 780 776 766 765 764 762 761 759 761 760 763 766 758 755 756 752 748 743 737 735 733 732 730 720 704 693 687 675 671 681 682 682 681 671 677 677 651 645 654 642 633 639 640 640 650 667 678 674 667 671 679 693 714 718 723 739 724 702 705 703 702 695 669 659 664 659 654 651 650 655 657 662 668 669 671 673
789 786 781 776 774 774 773 772 771 770 770 774 778 768 759 760 760 758 758 759 760 761 767 771 763 759 763 762 756 749 748 746 742 742 741 731 717 708 708 699 693 699 697 691 686 665 664 680 659 638 646 640 628 642 654 641 635 649 659 655 666 692 696 694 710 722 731 739 723 704 701 697 698 692 671 665 666 659 654 650 648 653 657 661 664 665 666 668
792 788 781 774 773 773 772 772 769 769 773 778 778 767 759 758 758 758 759 758 759 763 769 769 765 764 764 764 760 754 754 755 752 753 750 742 728 713 712 716 710 708 703 699 696 672 660 680 674 639 629 635 636 647 661 656 641 640 647 651 660 679 689 691 697 702 714 726 721 711 705 693 679 668 661 660 656 651 652 649 647 650 654 658 661 664 665 667
795 794 784 773 773 773 770 769 766 769 776 776 771 765 760 758 757 757 757 756 756 761 767 766 766 768 765 762 761 758 759 761 758 758 753 744 737 721 714 722 721 713 704 697 693 677 660 671 678 650 628 635 646 644 647 652 651 651 658 664 666 668 673 681 687 686 694 711 714 711 709 687 656 642 644 646 643 641 642 643 644 644 648 653 656 659 663 664
799 798 786 773 773 772 768 769 768 767 769 767 763 761 761 759 756 754 754 753 755 759 762 765 766 767 764 763 764 762 762 764 760 759 754 746 746 738 722 722 728 723 713 704 694 687 678 673 673 661 646 644 640 628 626 634 641 649 657 661 664 667 674 690 700 686 681 695 699 700 706 681 641 628 631 631 632 631 630 635 640 639 642 646 648 652 656 658
804 800 787 778 779 774 770 774 770 764 765 765 763 760 761 762 759 757 757 756 758 759 759 763 764 764 765 766 766 765 764 765 762 759 756 751 751 748 733 728 734 732 729 724 707 697 695 684 672 662 651 641 627 614 617 624 628 637 646 647 651 658 668 689 704 691 681 686 682 685 699 676 635 621 620 617 620 622 622 628 634 635 637 640 642 645 649 652
809 803 787 781 783 778 776 780 774 767 766 765 764 762 763 766 764 759 760 762 764 763 763 765 765 766 769 767 766 766 762 762 763 759 758 756 750 747 740 736 738 735 734 730 713 702 698 686 676 666 649 635 624 612 609 614 624 639 643 639 643 651 655 666 676 675 681 688 682 690 701 675 634 617 612 611 614 617 620 624 628 632 633 635 640 642 646 650
812 804 789 784 785 782 784 789 785 779 773 767 766 766 765 767 766 763 764 767 767 766 767 768 767 768 769 767 765 764 761 764 766 762 761 760 752 746 742 740 741 738 737 733 722 720 716 700 692 688 672 656 647 639 632 625 628 639 641 637 639 641 645 654 658 664 679 683 679 692 700 673 638 621 614 613 617 620 621 620 622 627 630 632 636 639 644 649
812 805 795 790 789 788 789 791 791 789 783 776 777 775 769 769 769 766 767 767 765 766 770 770 768 768 769 767 765 762 760 766 771 767 763 761 754 747 743 742 741 738 735 730 723 725 724 708 700 703 698 685 672 662 651 639 633 636 636 636 638 638 644 654 661 673 684 679 672 683 688 667 641 629 622 619 621 625 624 620 621 624 626 629 632 636 641 646
815 809 802 799 796 792 792 791 792 794 791 787 787 782 775 774 772 768 767 768 766 766 770 770 767 769 769 768 768 766 763 766 770 768 765 764 758 750 746 743 739 735 732 726 721 722 717 702 693 697 698 690 676 659 640 630 634 640 639 638 639 638 639 647 662 675 676 674 676 673 668 664 652 639 633 627 625 629 630 627 626 626 626 629 633 636 639 642
819 816 811 811 808 800 797 796 796 799 798 795 792 785 778 776 775 772 770 769 767 766 770 770 769 771 772 771 771 770 769 770 769 768 767 766 761 753 747 741 736 732 728 722 720 722 718 703 688 683 680 673 664 651 635 629 631 634 636 638 638 637 638 646 660 663 659 673 684 667 654 664 659 643 637 632 627 632 634 631 629 627 626 628 633 638 641 643
822 821 817 820 819 813 810 807 804 803 800 796 793 789 784 778 778 780 778 772 768 769 774 774 771 772 773 771 772 772 773 774 771 768 770 768 763 757 749 740 732 729 728 725 722 724 724 708 687 679 674 662 653 644 637 635 631 627 631 634 634 636 639 646 652 648 648 665 674 660 653 660 653 640 638 633 627 631 633 629 627 626 626 627 631 637 642 645
824 823 820 821 823 820 818 812 806 803 800 799 798 793 786 781 779 780 778 774 771 771 776 777 773 772 771 770 772 773 774 776 774 770 769 768 765 763 759 748 734 727 731 732 724 723 725 709 690 687 678 660 651 646 640 639 635 631 632 631 631 634 635 639 644 640 641 650 652 651 654 653 644 638 637 631 626 627 629 627 626 627 628 630 633 639 643 646
826 826 824 826 826 821 816 809 805 803 800 801 800 793 788 786 784 780 776 776 776 773 773 775 772 770 770 770 772 772 770 771 772 768 766 766 766 765 764 759 745 734 735 737 730 725 726 714 695 690 683 665 654 652 648 642 639 639 638 633 633 636 634 635 638 637 640 644 643 647 655 655 643 634 634 632 627 627 632 633 633 634 632 632 636 640 643 647
827 827 827 829 828 820 814 809 805 804 802 801 800 796 794 793 790 786 779 775 775 774 772 774 772 769 769 769 769 768 765 764 765 762 759 760 761 759 759 758 753 746 741 740 737 729 728 719 699 694 695 679 663 662 654 642 640 645 644 639 639 643 640 635 633 634 639 643 644 648 657 659 646 633 633 636 633 634 639 640 640 639 636 636 640 644 646 648
826 826 826 828 827 820 816 811 805 804 803 801 800 799 797 795 794 795 788 778 773 773 772 772 771 769 771 771 767 763 761 759 758 755 753 751 750 751 753 751 751 751 746 743 742 734 730 725 709 705 709 692 671 665 654 649 660 661 647 638 638 640 639 632 627 627 628 633 644 651 652 649 639 632 637 642 641 642 643 642 642 642 639 640 643 646 649 650